F1GZH-2 Weather Reports


time (UTC)temp
C
wind
direction
speed
KPH
gust
KPH
rain 1hr
cm
rain 24hr
cm
rain mn
cm
humidity
%
barometer
mb
20260507102918 14 225 0.0 3.2 0.00 0.00 0.00 73 1021.5
20260507100917 16 22 0.0 3.2 0.00 0.00 0.00 72 1021.5
20260507094916 16 0 0.0 0.0 0.00 0.00 0.00 45 1021.4
20260507092915 13 270 0.0 0.0 0.00 0.00 0.00 18 1021.3
20260507090914 12 22 0.0 0.0 0.00 0.00 0.00 10 1021.3
20260507084912 12 22 0.0 0.0 0.00 0.00 0.00 10 1021.1
20260507082911 11 315 0.0 0.0 0.00 0.00 0.00 10 1021.1
20260507080910 11 0 0.0 0.0 0.00 0.00 0.00 10 1020.9
20260507074909 11 247 0.0 0.0 0.00 0.00 0.00 10 1020.9
20260506170451 10 315 0.0 3.2 0.00 0.00 0.00 74 1015.6
20260506164450 11 0 1.6 6.4 0.00 0.00 0.00 77 1015.5
20260506162449 11 22 3.2 8.0 0.00 0.00 0.00 78 1015.5
20260506160448 12 315 0.0 4.8 0.00 0.00 0.00 78 1015.3
20260506154447 12 337 0.0 9.7 0.00 0.00 0.00 78 1015.2
20260506152445 13 337 0.0 6.4 0.00 0.00 0.00 77 1015.2
20260506150444 14 337 0.0 11.3 0.00 0.00 0.00 77 1015.2
20260506144443 13 337 6.4 16.1 0.00 0.00 0.00 78 1015.1
20260506142442 12 337 9.7 9.7 0.00 0.00 0.00 75 1015.1
20260506140441 11 0 12.9 12.9 0.00 0.00 0.00 73 1015.3
20260506134440 11 0 0.0 6.4 0.00 0.00 0.00 70 1015.2
20260506132439 11 0 0.0 9.7 0.00 0.00 0.00 70 1015.3
20260506130437 12 22 0.0 14.5 0.00 0.00 0.00 66 1015.1
20260506124436 11 315 0.0 11.3 0.00 0.00 0.00 68 1015.1
20260506122435 11 315 0.0 9.7 0.00 0.00 0.00 71 1015.0
20260506120434 11 337 3.2 11.3 0.00 0.00 0.00 76 1014.8
20260506114433 12 337 8.0 14.5 0.00 0.00 0.00 75 1014.6
20260506112432 12 337 3.2 9.7 0.00 0.00 0.00 68 1014.6
20260506110431 11 337 4.8 11.3 0.00 0.00 0.00 71 1014.4